Theta_e
341 342 341 336 331 328 327 327 327 327 327 328 328 328 327 324 323 321 321 320 318 318 317 316 315 314 312 311 314 316 314 312 313 314 323 334 335 336 338 339 340 342 342 342 342 340 333 323 318 316 315 315 315 315 320 328 329 325 323 322 322 321 321 321 320 320 320 320 320 319 319 319 319 319 319 318 318 318 318 318 318 317 316 315 314
342 343 342 340 335 330 329 329 328 328 328 329 329 328 327 326 324 322 321 319 318 317 317 316 317 317 314 311 311 315 314 314 313 315 329 337 337 339 340 341 341 341 341 341 341 339 330 320 319 316 315 315 315 314 317 327 327 321 320 321 322 321 321 321 320 320 321 320 320 319 319 319 319 319 320 319 319 320 320 321 320 320 318 316 315
342 343 342 341 338 333 332 331 330 329 328 330 329 329 328 327 325 323 321 319 318 317 317 317 318 320 317 312 309 314 314 316 316 316 331 338 338 340 340 342 341 341 341 341 341 336 327 320 318 315 316 315 314 315 314 320 323 319 319 321 320 320 321 321 320 321 321 320 320 320 319 320 320 320 321 321 321 322 323 323 323 320 318 317 316
340 342 342 342 339 335 334 333 332 330 330 330 330 330 329 327 325 323 322 320 318 318 317 317 318 321 322 315 309 314 315 320 322 318 329 339 339 340 341 342 341 341 341 340 340 334 325 321 318 316 316 316 314 314 313 315 318 318 319 319 319 320 321 321 321 321 321 320 320 320 320 320 320 321 322 322 323 324 325 325 324 321 318 317 317
336 341 343 341 340 337 336 336 336 332 330 331 331 330 329 327 325 324 323 320 318 318 318 317 316 320 325 319 309 313 317 323 328 319 325 337 338 341 341 341 342 341 341 340 339 333 326 322 318 317 317 315 314 314 314 314 317 318 318 318 319 321 321 322 322 321 321 320 320 320 320 320 321 322 322 323 324 325 326 326 324 320 318 317 318
333 339 342 341 341 339 338 338 338 335 331 331 332 330 329 327 326 325 324 320 318 319 318 318 316 319 327 322 311 312 320 326 331 322 320 335 339 340 342 341 342 341 341 339 338 334 327 323 318 318 317 314 314 314 314 314 316 318 317 319 321 322 322 323 323 323 322 321 321 321 321 321 321 322 323 324 325 326 327 325 322 319 318 317 317
336 338 340 341 341 340 340 340 339 338 333 331 331 330 329 327 327 326 324 320 319 319 318 319 316 320 328 325 314 312 322 328 332 327 318 330 338 339 341 342 341 341 340 339 339 335 328 323 318 318 317 314 315 315 315 315 317 318 318 320 322 323 324 324 324 324 323 323 323 323 322 322 321 322 324 325 326 326 326 325 323 320 318 318 316
340 340 341 341 341 340 341 341 339 338 336 334 331 330 330 327 326 326 324 319 319 318 318 320 316 321 330 328 316 312 323 330 332 331 321 322 334 340 340 342 342 341 340 339 339 336 330 324 318 318 317 315 315 315 315 316 317 318 319 321 322 323 324 324 325 324 324 324 325 324 324 323 322 323 324 325 325 325 326 325 323 321 319 319 317
341 341 342 342 342 341 340 340 339 337 338 338 333 330 330 328 326 325 322 319 319 318 319 319 315 322 330 329 317 312 324 331 332 333 327 320 327 337 340 341 341 341 340 339 339 337 331 324 319 317 317 315 315 315 315 317 318 319 320 322 322 323 323 324 324 324 325 325 325 326 325 324 323 323 325 325 325 325 325 324 323 320 319 319 319
341 340 342 343 341 341 340 339 339 339 339 339 335 331 330 329 327 325 321 319 319 318 320 315 314 323 330 329 318 313 324 330 333 333 332 325 321 330 338 340 341 342 341 340 339 338 333 325 320 317 316 315 315 316 315 317 319 320 321 322 322 323 323 322 323 324 325 326 327 327 327 326 324 324 325 325 324 324 324 323 323 321 320 319 321
341 341 341 341 340 338 339 340 340 340 340 340 337 332 330 330 328 324 321 320 319 319 320 313 316 326 330 329 317 313 324 329 333 334 334 331 323 323 330 337 340 341 341 341 339 339 336 329 323 317 316 315 315 316 316 317 319 322 322 322 323 322 322 320 321 323 325 327 328 328 328 327 326 324 324 324 323 323 323 323 323 322 321 322 324
340 340 340 339 337 336 338 340 340 340 340 340 338 333 331 330 328 324 321 320 318 319 320 318 322 327 329 327 315 313 322 328 333 334 335 334 329 322 323 331 339 340 340 341 340 341 338 332 328 319 315 316 315 316 316 317 319 322 323 323 323 322 320 318 320 323 325 327 329 329 329 328 327 326 325 324 323 323 323 324 324 323 325 326 327
339 339 339 337 337 337 337 339 340 341 340 341 339 334 331 330 328 323 321 321 318 319 320 322 325 326 327 326 316 313 321 328 331 333 334 335 334 328 323 326 334 339 339 341 340 341 338 334 333 321 314 316 315 316 317 318 321 322 323 322 322 320 319 319 320 323 324 326 328 330 329 329 327 328 327 325 324 324 325 326 326 326 327 327 327
338 339 339 338 339 340 339 338 340 341 340 341 339 334 331 330 328 323 321 322 319 320 321 322 326 327 326 326 320 313 320 327 330 332 333 335 336 333 328 324 328 336 338 340 340 340 339 337 335 323 315 316 315 316 317 320 322 323 322 321 321 320 319 321 321 322 324 326 328 330 330 329 328 328 328 327 325 325 327 329 329 328 328 328 327
337 338 339 339 340 342 342 341 341 341 340 341 340 335 331 330 329 323 321 322 319 320 324 323 324 328 328 328 325 316 319 327 329 332 332 334 336 335 333 327 323 332 337 339 340 340 339 339 336 325 316 316 315 316 317 321 323 323 322 321 320 319 319 321 321 322 324 326 327 329 330 328 328 328 327 327 327 327 329 330 330 329 328 328 327
337 338 338 339 340 342 343 344 342 341 341 341 340 335 332 331 330 325 321 323 321 318 324 326 322 324 327 329 328 322 320 325 328 330 331 332 334 335 335 332 324 328 335 338 339 339 339 339 336 327 317 315 316 316 316 320 323 324 323 322 321 319 319 321 321 323 325 326 328 329 329 327 328 328 327 327 327 328 330 329 329 329 329 329 328
338 338 338 339 340 340 342 344 342 340 341 341 339 336 332 331 331 327 322 322 322 319 321 327 326 322 323 326 329 328 323 323 325 327 329 331 332 334 335 334 329 326 331 335 338 338 339 339 337 328 318 315 316 316 316 318 322 324 324 322 321 321 321 321 322 325 326 326 328 329 328 327 328 328 328 328 327 328 329 329 329 329 329 330 328
339 339 339 339 339 339 340 343 341 341 342 341 340 336 334 332 332 330 325 321 322 321 318 322 326 325 323 323 326 329 328 325 325 325 327 329 330 332 333 334 333 328 327 331 335 337 338 338 337 328 317 314 315 316 316 317 320 324 324 322 322 323 323 323 324 325 325 326 328 329 328 327 328 328 328 327 327 327 328 328 328 329 329 329 329
338 339 339 339 339 339 339 341 341 341 341 342 341 337 335 334 333 332 329 324 321 321 319 319 321 322 322 323 324 326 328 329 328 328 328 328 329 330 331 333 335 332 327 327 331 335 338 338 337 327 316 314 315 316 317 316 318 323 323 322 323 324 326 326 325 325 325 327 329 330 329 328 328 328 328 327 327 328 329 329 328 329 329 329 329
337 338 338 339 339 339 339 340 341 341 340 341 341 337 335 334 333 333 332 329 323 320 320 319 318 317 318 319 322 323 324 326 328 330 331 330 329 329 330 331 334 334 330 326 327 333 336 337 337 329 317 314 316 315 316 316 317 320 321 322 324 325 326 327 326 325 325 327 329 331 330 329 329 329 329 328 329 329 330 329 329 329 329 329 329
336 336 336 337 338 338 339 339 340 340 339 340 340 336 335 334 332 331 332 332 327 321 319 320 320 318 317 316 319 320 319 320 322 326 328 330 330 329 328 330 333 334 332 326 326 331 335 336 337 332 322 314 315 316 316 316 316 317 319 321 324 325 326 326 326 326 327 327 329 330 331 331 331 330 330 330 330 329 329 329 330 330 329 329 328
334 334 334 335 336 337 338 339 339 340 339 338 338 335 335 334 332 331 331 332 331 326 320 319 321 321 319 318 317 318 317 317 317 318 320 324 328 330 329 330 332 333 332 328 325 329 333 335 336 334 327 318 315 316 316 315 316 316 317 320 323 324 325 326 325 325 327 327 327 329 330 331 332 332 330 330 331 330 330 330 330 330 330 329 328
331 332 333 334 334 335 337 337 337 338 339 338 337 336 335 335 333 332 332 332 332 330 323 319 320 322 322 320 319 318 319 320 318 316 315 316 319 325 328 331 332 332 332 329 326 328 332 334 335 335 331 323 317 316 316 315 316 316 316 319 321 324 325 324 324 323 324 325 326 328 330 331 332 333 332 331 332 331 330 330 330 330 330 329 328
329 330 330 331 332 333 333 333 335 335 337 338 338 337 336 336 334 334 333 333 332 332 328 321 318 320 323 322 321 320 321 323 321 318 315 314 313 318 325 329 331 332 332 330 327 327 330 333 334 335 332 328 322 318 316 315 315 316 316 318 320 323 323 323 324 322 322 324 326 328 330 331 332 333 333 332 332 332 331 330 330 330 330 330 329
326 326 326 328 329 330 330 331 332 332 334 336 337 337 337 336 336 336 335 334 333 333 332 326 319 317 320 323 322 321 322 324 322 319 318 317 313 312 320 327 330 330 331 330 328 326 328 332 334 335 334 331 328 324 320 317 315 316 316 318 320 322 323 324 324 323 322 324 326 327 328 330 332 333 334 333 332 332 332 330 329 329 329 329 329
323 323 324 326 326 326 327 327 329 328 329 332 333 336 337 337 338 338 337 336 335 334 333 331 325 318 316 320 324 323 322 324 323 318 317 317 315 312 314 323 329 329 329 330 328 326 327 331 334 335 334 333 332 329 325 321 317 316 316 318 320 322 324 325 325 324 323 325 326 326 327 328 330 331 332 333 332 332 332 331 329 329 329 328 328
322 323 323 324 324 324 324 324 324 324 325 327 329 331 334 336 337 338 338 337 336 336 335 333 331 325 318 317 321 323 322 324 324 319 317 317 317 314 311 316 326 328 327 328 327 326 326 330 334 335 334 334 333 332 330 327 322 318 317 317 319 322 324 325 326 326 324 325 326 326 326 326 327 329 332 332 332 331 331 330 328 327 328 327 327
320 321 322 322 323 323 323 323 323 323 323 324 325 326 328 331 332 334 336 337 337 337 337 335 334 331 324 318 318 322 323 323 325 323 320 320 319 316 312 311 321 328 327 326 327 325 325 328 332 334 334 334 333 333 334 333 328 322 319 318 320 322 323 325 327 326 323 323 323 324 325 325 325 328 331 332 332 331 330 330 329 327 326 325 326
319 320 320 321 321 322 322 322 322 322 322 323 323 323 324 325 327 329 331 333 335 336 337 337 336 334 331 324 317 319 323 323 324 326 324 323 323 319 314 310 315 325 327 326 326 325 324 328 332 333 333 333 333 333 335 335 333 327 323 320 321 323 323 323 325 325 325 325 325 325 325 326 325 327 330 331 332 332 330 329 328 326 325 324 325
318 318 319 319 320 321 321 321 322 322 322 322 323 323 323 323 324 324 325 326 329 330 332 336 337 336 334 331 323 317 320 323 323 326 326 325 325 323 317 312 312 320 326 325 326 325 323 326 332 334 333 332 332 333 334 335 335 333 329 326 324 325 325 326 328 328 329 329 328 327 327 328 327 327 328 329 330 330 330 328 326 325 324 323 323
316 317 317 318 318 319 320 320 321 321 321 322 323 324 324 324 323 323 323 323 324 325 326 331 335 337 336 335 331 322 318 323 324 325 327 326 326 326 322 316 314 319 324 325 325 325 323 325 330 333 333 332 331 333 335 335 335 334 333 331 331 330 330 331 331 331 330 330 328 327 327 327 327 328 328 328 327 327 328 328 326 324 323 322 321
314 315 316 316 317 317 318 319 319 320 321 322 323 324 324 324 324 323 323 323 323 323 324 326 331 335 336 336 335 329 320 321 326 326 327 328 327 327 325 321 318 319 321 323 324 324 323 325 329 332 333 332 332 333 334 335 335 334 333 332 333 332 331 331 330 330 328 326 323 321 321 321 323 325 325 325 325 325 327 327 326 324 320 318 319
312 313 313 314 315 315 316 317 318 318 319 321 322 324 325 325 325 324 322 322 323 323 323 324 328 333 335 335 336 334 327 321 325 327 327 329 329 328 327 325 322 321 320 321 321 322 323 325 329 332 334 333 333 333 333 332 333 333 332 331 331 330 330 329 327 324 321 317 315 314 314 315 315 317 316 314 315 320 324 325 324 321 316 314 316
310 310 311 312 313 314 315 315 316 317 318 319 321 322 324 324 325 325 323 322 323 323 323 323 325 330 334 334 334 336 332 326 324 328 329 329 331 330 329 328 327 326 325 324 323 323 325 326 329 331 332 333 332 332 331 331 331 331 331 331 330 330 328 323 319 317 316 317 319 320 321 321 320 319 316 312 310 312 315 318 317 314 312 313 313
307 308 309 310 311 312 313 314 315 316 316 317 318 319 321 322 324 325 324 324 324 324 324 323 324 329 332 333 334 334 334 331 326 328 329 329 330 331 330 329 329 329 329 328 327 326 327 328 329 330 331 331 332 331 330 329 330 330 330 330 329 329 324 317 315 317 321 324 326 327 328 328 328 327 325 321 317 313 312 312 311 310 309 310 310
305 306 307 308 309 310 311 312 313 314 315 316 317 317 318 321 323 324 324 325 325 324 324 324 324 327 331 332 333 332 333 332 329 328 330 330 330 331 331 330 329 329 329 330 330 329 330 330 330 330 330 330 330 329 328 327 327 326 326 325 324 324 319 316 318 321 324 326 327 328 328 329 329 330 329 328 325 320 315 312 311 310 309 307 307
303 304 305 307 308 309 310 311 312 313 314 315 316 317 317 319 322 322 323 324 325 325 325 325 324 326 329 330 331 331 331 332 330 329 331 331 331 332 331 331 331 330 329 329 329 329 329 329 329 329 328 328 327 326 325 324 323 322 321 319 317 317 318 319 321 322 325 326 327 327 328 328 329 329 329 329 327 323 318 314 312 311 310 308 307
303 303 304 305 306 307 309 310 312 312 313 314 315 316 316 317 320 321 322 323 324 325 325 325 324 324 327 329 330 330 331 331 331 331 331 331 332 332 332 332 331 331 330 329 328 328 327 326 325 324 323 323 324 323 321 319 318 317 316 315 315 317 318 319 321 323 325 326 327 328 328 329 329 329 329 328 327 323 318 315 312 311 310 308 307
301 302 302 303 304 305 307 309 311 312 313 313 314 315 315 316 318 319 320 321 322 324 324 325 325 325 325 327 328 329 329 329 330 329 329 329 330 331 331 331 331 331 331 330 329 328 327 324 321 321 319 319 320 318 316 315 315 314 313 314 316 318 320 322 324 326 327 327 328 328 329 329 329 329 329 328 326 324 319 315 312 312 311 309 307
300 301 302 303 304 305 307 308 310 311 312 313 313 314 315 316 317 318 319 320 320 321 322 323 324 325 325 326 326 327 327 326 325 325 326 326 326 327 328 328 329 329 330 330 330 329 328 327 325 324 323 322 321 320 318 316 316 316 315 316 318 321 323 325 326 326 327 328 328 328 328 328 329 329 328 328 327 326 323 320 316 314 312 310 308
299 300 301 302 303 304 306 307 309 310 310 312 313 313 314 315 316 317 317 318 319 319 320 320 319 320 322 323 323 323 323 322 321 321 322 324 324 323 323 323 324 325 325 326 327 327 327 328 328 328 326 326 326 324 323 322 321 321 321 322 322 323 324 325 326 326 326 327 327 326 325 326 328 328 328 328 327 327 326 325 322 319 316 314 312
298 299 300 301 302 303 304 305 306 308 309 311 311 312 313 314 315 316 316 316 317 318 318 318 317 317 318 319 319 320 319 320 320 319 319 320 321 320 318 318 318 319 319 319 320 320 322 322 324 325 326 327 328 329 328 326 326 326 326 326 326 326 326 327 327 326 326 326 326 325 325 325 325 326 327 328 328 327 327 326 325 323 321 319 316
295 296 297 298 300 301 302 303 304 305 307 308 309 310 311 311 312 313 314 315 315 316 317 318 318 317 317 317 316 315 315 315 316 315 316 317 317 317 315 314 314 315 315 316 316 316 317 318 318 319 319 321 325 328 328 328 328 328 328 329 329 328 328 328 328 327 327 327 326 326 326 325 324 324 325 326 327 327 327 326 326 325 324 322 319
294 295 296 297 298 298 299 300 301 302 304 305 306 307 307 308 309 310 311 312 312 311 312 314 316 315 314 314 313 312 312 312 313 313 313 313 313 314 313 313 312 312 312 313 314 314 314 315 315 315 315 315 318 320 322 324 326 327 328 330 330 330 329 329 329 328 328 327 326 327 327 326 325 325 325 325 326 327 326 326 326 325 325 323 322
292 293 294 294 295 296 297 298 299 300 301 301 303 304 305 306 307 307 308 310 311 310 309 311 313 313 312 312 311 311 312 312 312 312 312 312 312 312 312 312 311 311 311 311 312 312 312 313 313 314 313 313 313 315 316 318 320 321 323 324 326 327 328 328 329 328 328 327 326 327 328 327 326 325 325 325 325 326 326 325 325 325 325 325 324
290 290 291 292 293 293 294 296 297 298 298 299 300 301 303 304 305 306 306 307 309 309 308 309 310 311 310 309 310 311 311 312 311 311 311 311 311 311 311 311 311 310 310 310 310 310 311 312 312 313 313 312 312 313 313 314 315 316 316 317 317 319 321 325 327 328 327 328 327 327 328 328 327 326 325 325 326 327 326 325 325 325 325 325 324
287 287 288 290 291 292 292 294 295 295 296 296 297 299 300 301 302 302 303 303 304 304 304 305 306 307 307 308 308 309 310 311 311 311 311 311 311 311 310 310 310 310 310 310 309 309 310 311 312 312 313 313 312 313 313 313 314 314 314 314 314 314 317 320 323 325 326 326 327 327 327 326 326 325 325 325 325 327 327 325 325 325 325 325 325
285 285 287 288 288 289 290 291 292 293 294 294 295 296 297 298 298 298 299 299 299 299 300 301 302 303 305 306 307 308 309 310 311 311 311 311 311 310 310 309 309 309 309 309 309 308 308 309 310 311 312 313 312 312 312 312 312 313 312 313 314 313 315 316 317 320 322 323 323 324 324 324 323 323 323 324 325 327 327 326 325 325 325 325 325
283 284 284 285 285 286 287 288 290 290 291 292 292 293 294 294 295 295 295 296 296 296 297 298 299 301 302 304 305 306 307 308 309 310 310 310 310 310 310 309 308 308 309 309 309 308 308 308 309 310 311 312 312 312 312 312 312 312 312 312 313 313 314 314 314 315 317 317 318 318 321 322 322 321 321 323 325 326 327 326 325 325 325 325 324
282 282 283 283 284 284 285 286 287 287 288 289 290 290 291 292 292 292 292 293 293 294 295 296 297 298 300 301 302 303 304 305 306 307 308 309 309 309 309 309 308 308 308 308 308 308 308 307 307 308 310 311 311 312 312 312 312 311 311 311 311 311 312 313 313 313 314 315 315 314 317 319 320 321 322 323 324 325 325 326 325 325 325 324 324
281 282 282 282 283 283 283 284 284 284 285 286 287 287 288 289 289 289 289 290 291 292 293 294 294 295 297 298 298 299 300 302 303 304 305 306 307 308 308 308 308 308 308 308 308 308 307 307 306 307 308 309 310 311 311 311 312 311 311 311 311 310 310 310 312 313 313 313 314 314 315 318 318 319 320 322 323 324 324 325 325 325 325 324 325
Wind_Speed
2 4 6 9 16 21 22 21 19 18 17 16 14 13 11 10 10 9 9 8 7 6 5 5 5 6 9 12 16 17 15 15 15 16 19 20 19 18 18 17 18 19 19 17 16 14 12 12 12 12 11 11 12 12 12 14 18 20 20 20 19 19 19 20 19 16 16 15 14 15 14 14 15 15 15 15 15 15 15 15 15 16 16 16 15
3 4 5 7 13 20 22 20 20 18 17 16 15 13 12 10 9 8 8 7 6 5 3 3 4 5 7 10 15 17 16 15 14 18 21 20 19 18 17 17 18 19 19 18 15 14 12 12 12 12 12 11 11 11 12 14 17 20 20 20 19 19 20 20 18 16 15 14 14 14 13 13 14 14 15 15 15 15 15 15 15 15 16 15 16
4 6 6 7 11 18 21 21 20 19 18 17 15 14 12 10 9 8 7 6 5 5 3 3 4 5 6 8 14 18 17 15 14 18 22 19 19 18 17 17 18 19 18 18 16 14 13 12 12 12 12 12 12 12 12 14 18 20 20 20 19 20 21 19 16 16 15 14 14 13 13 12 13 14 15 15 15 15 14 14 14 14 15 15 16
3 7 7 7 10 16 20 21 20 19 18 17 15 14 12 10 9 8 7 6 5 4 4 4 5 6 7 6 12 19 18 16 14 18 23 19 18 18 18 17 17 18 17 17 16 14 13 13 13 13 13 13 13 13 13 15 19 20 20 20 20 21 20 17 15 15 14 13 13 12 12 12 13 14 14 14 14 14 13 13 12 13 14 15 16
3 6 8 7 9 15 19 21 19 19 18 17 16 14 12 10 9 8 7 6 5 4 4 5 5 8 9 7 12 20 19 17 15 17 22 19 17 17 17 17 17 18 17 16 15 14 13 13 14 14 14 14 14 14 16 17 19 20 20 20 21 20 18 16 15 14 13 13 12 11 11 12 13 13 14 13 13 12 11 11 11 12 13 15 16
4 5 7 7 8 13 19 20 19 19 18 17 16 14 12 10 9 8 7 6 5 5 5 7 7 9 11 8 12 21 20 19 17 16 22 20 17 16 17 18 18 18 18 17 16 14 14 12 13 16 16 15 15 15 17 19 20 20 21 21 21 19 17 16 15 14 13 12 11 11 11 11 12 13 13 12 11 11 10 9 10 11 13 14 15
4 5 6 7 7 11 17 20 19 18 18 18 16 15 13 11 9 8 8 7 6 6 7 8 8 11 13 10 12 22 22 20 19 16 20 21 18 17 17 18 19 19 19 18 17 15 14 12 11 16 17 16 17 16 17 20 21 21 22 22 21 19 17 16 15 14 13 12 11 10 10 10 11 13 13 11 10 9 8 8 9 10 12 12 13
6 8 7 7 6 8 14 19 19 19 20 20 18 16 14 12 10 9 8 7 7 6 7 8 10 13 15 12 14 24 24 21 20 17 19 21 19 16 16 18 19 19 20 18 18 17 15 12 11 15 17 17 18 17 18 21 23 23 23 22 20 19 17 15 14 13 12 12 10 9 9 10 10 12 12 10 9 8 7 7 9 9 10 11 12
8 10 10 10 7 6 11 18 20 19 21 21 19 18 15 13 10 9 8 7 7 6 7 9 12 16 17 14 16 25 25 21 21 19 19 21 21 18 15 16 17 19 21 19 18 18 16 14 12 13 16 18 18 19 20 22 23 23 23 21 19 18 16 14 13 13 12 12 10 9 8 9 10 11 11 9 9 8 7 6 7 8 9 10 10
10 9 12 12 8 6 10 16 20 20 21 21 20 20 16 14 12 10 9 7 7 6 7 10 14 18 18 15 17 26 26 23 21 20 20 20 22 20 16 14 15 18 20 20 19 19 17 16 14 12 16 19 19 20 21 22 24 23 21 20 18 17 16 14 14 14 12 11 11 9 8 7 8 9 9 9 9 8 7 6 7 7 8 8 9
12 9 11 12 8 8 10 14 20 21 21 21 21 21 18 15 13 11 9 8 6 5 7 10 15 19 19 16 18 27 26 24 22 20 20 20 21 22 19 15 15 16 19 21 20 19 18 17 14 13 16 20 20 21 22 23 24 23 22 20 18 16 14 12 12 14 12 10 10 9 8 6 6 8 9 8 8 8 7 6 6 7 7 7 8
14 11 11 11 11 10 10 13 19 23 22 21 21 22 20 16 13 12 9 8 6 5 6 9 15 18 18 16 19 27 27 24 22 19 19 19 20 22 21 17 15 15 18 22 21 20 18 17 15 14 16 19 20 21 23 24 24 24 22 20 17 15 13 11 11 12 12 10 8 8 8 7 6 7 8 7 7 7 6 6 6 6 7 7 7
14 13 12 12 14 13 12 14 17 23 23 21 21 22 21 17 14 13 10 8 7 5 6 10 14 16 17 15 19 27 27 24 23 20 18 19 19 20 22 20 16 15 17 21 22 21 19 18 16 14 16 19 21 22 24 25 25 24 22 20 17 15 13 11 11 11 11 10 8 7 7 7 7 7 7 7 6 6 5 5 5 5 5 5 6
13 13 12 12 15 16 16 16 18 23 24 22 22 22 21 18 15 14 11 9 8 6 6 9 13 15 16 15 18 26 27 24 23 21 19 19 20 19 21 22 19 16 15 17 21 20 19 19 17 15 16 19 21 23 24 25 25 24 22 20 17 15 14 13 12 11 10 10 8 6 7 8 8 8 7 6 6 5 4 4 4 4 4 3 4
13 11 11 13 17 18 19 21 21 22 24 23 22 22 22 19 16 15 12 10 8 7 8 9 12 15 16 16 17 23 26 25 23 22 20 19 19 19 19 21 22 18 15 16 19 20 19 18 17 15 15 18 22 23 24 26 26 24 23 20 18 16 14 14 13 12 11 10 8 7 8 9 9 8 7 7 6 5 4 5 4 2 2 2 2
12 11 12 14 17 18 20 25 21 19 22 22 21 22 22 20 17 16 14 11 9 8 9 10 12 13 16 17 18 21 25 26 24 23 22 20 20 19 18 20 23 21 17 16 17 19 19 17 16 15 14 17 22 24 24 26 26 25 24 22 19 17 15 14 13 12 11 10 9 9 10 9 9 8 7 7 5 5 5 5 4 2 2 3 2
11 11 12 13 15 15 19 23 19 17 22 23 22 22 22 21 18 17 15 12 10 9 10 11 13 13 14 16 18 20 22 25 25 24 23 22 21 19 18 19 21 22 21 17 15 16 17 16 16 15 14 16 21 23 24 26 27 26 25 23 21 19 17 15 14 13 12 11 11 11 11 10 9 8 7 7 5 5 5 5 4 3 3 3 2
11 11 12 13 14 14 17 20 17 18 23 24 23 22 22 21 19 17 16 14 12 10 10 12 13 14 15 15 17 19 21 23 23 24 23 23 23 21 20 19 19 22 23 19 16 15 16 16 16 15 14 16 19 22 24 25 27 27 26 24 22 21 19 17 15 13 12 12 11 11 10 9 8 7 7 7 6 6 7 6 5 5 4 4 3
9 10 11 13 14 15 16 18 19 20 22 25 24 22 23 22 20 18 16 15 13 12 11 12 13 14 15 16 17 19 21 23 23 23 23 23 24 24 23 21 19 20 22 23 20 17 17 17 16 15 14 16 19 21 23 24 26 27 26 24 23 22 21 19 16 13 12 12 12 11 9 9 9 8 8 8 7 8 8 6 6 5 5 5 5
5 7 9 11 14 16 15 17 21 20 18 23 25 23 23 22 20 19 17 16 15 14 13 13 13 13 14 15 17 18 20 22 24 24 23 23 23 24 24 23 21 20 22 23 22 19 17 16 15 14 14 16 18 19 21 23 25 26 26 24 24 23 22 19 15 14 13 12 13 12 10 9 9 10 9 9 8 8 8 8 7 6 5 5 5
3 4 5 7 12 15 15 16 21 22 16 19 25 23 23 22 21 21 19 17 16 16 15 15 15 14 14 14 16 19 20 21 23 25 25 24 24 24 24 24 23 21 22 23 23 21 18 16 16 15 14 16 18 18 19 21 24 26 26 25 25 23 22 19 15 13 13 12 12 12 11 11 11 11 10 10 10 9 9 9 8 8 7 6 6
2 3 3 4 8 13 16 17 21 24 18 17 23 23 23 23 22 22 21 20 18 17 17 17 16 16 15 15 16 17 20 21 23 25 27 27 26 25 25 24 24 23 23 23 23 23 20 18 17 16 16 16 17 18 19 21 23 24 26 26 26 24 22 19 16 14 14 13 12 12 12 12 12 11 11 12 12 10 9 9 9 9 8 8 7
2 3 3 2 4 9 14 16 18 22 20 18 24 25 22 23 23 22 22 21 20 19 19 19 19 18 17 17 17 17 17 19 21 24 28 29 29 28 26 26 25 24 24 24 24 24 22 21 20 18 18 18 18 19 21 22 23 23 25 27 27 25 23 21 18 16 15 15 14 13 14 13 12 11 13 13 13 12 11 10 10 10 10 9 8
2 1 1 2 2 4 7 9 11 15 16 16 21 24 23 22 22 22 22 22 21 21 20 20 20 20 19 19 18 17 17 17 19 22 26 29 31 30 29 28 28 26 25 25 24 25 24 23 21 21 20 20 20 20 21 23 23 23 24 26 26 26 24 22 20 18 17 17 16 15 15 14 13 13 14 14 14 13 11 10 10 10 10 10 9
2 1 1 1 2 2 4 6 7 8 8 11 14 20 24 24 23 21 22 23 22 22 22 22 22 21 21 20 20 19 18 17 18 20 24 27 30 32 32 31 30 29 27 26 26 26 26 24 23 23 23 23 22 22 22 22 23 24 24 25 26 26 25 24 22 20 19 19 18 17 16 14 14 14 12 13 14 14 12 10 11 11 12 12 11
2 0 1 2 3 3 5 5 5 6 4 4 6 12 20 23 23 22 22 23 23 23 23 24 24 24 23 22 21 21 20 18 18 19 22 24 28 32 34 34 33 31 30 29 27 27 27 27 25 25 25 25 24 24 22 22 23 24 25 25 26 27 27 26 24 22 21 21 20 19 18 16 15 15 13 14 15 15 14 12 12 13 13 14 14
1 1 1 2 3 4 5 6 6 7 5 4 4 4 10 16 19 20 22 23 23 22 25 27 26 26 24 24 24 23 22 20 19 20 20 22 24 28 34 37 35 33 32 31 29 28 28 28 27 26 25 26 25 24 23 23 24 25 26 27 27 28 27 27 25 23 23 22 22 21 20 19 18 17 17 17 16 16 16 14 13 14 15 16 16
2 2 2 2 3 4 5 6 6 8 6 5 5 6 4 5 9 13 17 22 25 24 24 28 29 29 27 26 26 25 23 23 21 21 21 21 21 23 29 36 38 35 33 33 30 29 30 30 29 28 27 27 26 24 23 24 26 27 28 28 28 28 27 26 25 24 24 24 24 23 23 23 22 21 20 19 19 19 18 16 16 17 17 18 18
4 4 4 4 4 3 4 5 5 6 7 6 6 7 7 5 4 5 8 11 18 23 23 26 29 31 31 28 28 28 26 25 24 23 22 21 20 20 24 32 38 37 35 34 32 30 31 31 30 29 29 29 27 23 22 25 27 28 30 30 30 29 27 26 25 24 25 26 25 25 25 26 26 25 23 23 23 23 21 19 20 20 20 20 19
6 6 6 6 6 5 5 5 5 5 5 6 5 5 6 6 5 6 8 7 7 11 14 20 27 29 32 32 30 29 29 27 26 25 24 23 21 20 21 27 34 37 37 35 33 31 31 32 31 31 30 29 28 24 23 25 25 26 28 29 29 28 27 26 25 26 27 27 27 27 27 28 29 28 27 27 28 28 26 24 22 22 23 22 22
7 7 7 7 7 7 6 6 7 6 5 5 5 5 6 7 6 7 9 9 8 11 11 10 21 26 29 33 34 32 30 29 28 27 26 24 23 22 21 23 30 36 37 36 34 32 32 32 31 30 30 30 29 26 24 25 25 25 25 25 26 25 26 26 26 27 27 28 28 29 29 30 30 31 30 31 31 31 30 29 27 25 25 25 25
9 9 8 8 7 7 7 7 8 8 6 6 5 6 7 8 9 9 10 11 11 12 13 11 11 22 27 30 35 35 32 31 30 29 28 27 25 24 23 23 27 31 34 35 34 33 32 32 30 29 31 31 29 27 25 26 26 26 25 25 25 25 26 26 27 27 27 28 28 29 29 29 30 32 32 33 33 33 32 32 31 31 30 29 28
11 11 11 10 8 7 7 7 8 9 8 7 6 6 7 8 10 11 12 13 14 14 13 12 11 14 25 29 32 34 33 33 32 31 30 29 27 26 25 25 26 28 31 33 33 33 32 32 31 30 32 32 30 29 27 27 28 28 27 27 27 27 28 28 28 27 26 26 25 24 24 24 26 27 28 29 31 33 34 34 33 33 32 31 30
11 10 11 10 9 8 7 6 7 7 8 8 7 6 7 8 9 11 12 13 14 13 12 11 10 9 19 25 28 30 33 34 33 33 32 29 28 28 28 27 27 27 28 30 32 32 31 31 31 31 31 31 30 30 29 29 30 30 30 29 29 29 29 29 27 25 24 22 21 20 20 20 21 22 23 23 25 28 30 31 32 31 30 29 29
10 10 10 10 10 10 8 7 6 6 7 7 7 7 7 7 8 9 11 11 11 10 10 9 8 9 13 19 23 25 29 35 34 33 33 32 30 29 29 29 28 28 29 29 30 30 31 31 31 31 32 32 31 32 32 31 32 32 32 31 32 31 30 28 27 26 24 22 21 21 22 22 21 21 22 22 22 23 25 27 28 28 28 27 27
11 11 11 10 10 10 10 8 6 5 5 5 6 6 6 7 7 5 6 7 7 7 7 5 6 9 11 11 16 19 22 29 33 33 32 32 32 31 30 30 29 28 28 29 30 30 31 31 32 33 34 34 34 34 34 34 34 34 33 32 32 32 31 29 28 27 25 24 24 24 25 25 24 24 24 24 23 24 24 25 27 27 27 27 26
13 13 13 12 11 10 10 9 7 5 4 4 4 5 5 5 5 4 3 3 4 4 4 4 4 8 11 10 11 14 14 17 24 29 29 28 30 31 31 31 31 30 29 29 30 31 31 33 34 35 36 37 37 37 36 36 36 35 34 32 32 32 31 31 30 28 27 27 27 27 27 27 26 26 25 25 24 25 25 26 26 27 27 26 25
13 14 14 14 13 13 11 10 9 7 5 4 3 3 4 4 4 4 4 3 2 2 3 5 5 7 11 11 11 13 14 14 17 22 24 26 29 32 33 32 31 30 29 28 29 30 30 32 34 36 37 38 38 38 37 37 37 36 35 34 33 34 33 32 31 30 29 30 30 29 28 27 27 27 26 25 25 25 26 27 27 27 27 26 24
11 12 13 13 13 13 13 11 10 9 7 6 4 3 3 3 3 2 2 3 4 3 2 5 6 6 8 10 11 12 14 16 18 19 18 16 19 23 28 30 31 30 29 29 28 28 29 30 32 34 36 38 38 38 37 37 36 35 35 35 35 35 34 34 33 33 32 32 32 31 29 27 27 27 26 25 24 24 25 26 27 27 26 26 25
10 10 11 11 11 11 11 11 10 9 8 6 6 5 5 4 4 2 2 4 4 2 0 2 2 4 6 7 8 9 9 9 10 15 17 13 6 8 12 15 17 21 26 29 30 29 30 32 33 34 35 37 37 38 38 37 37 37 36 36 36 36 37 37 36 35 34 34 34 33 32 29 28 28 28 25 23 23 23 24 25 26 26 26 25
8 8 8 10 11 11 11 11 10 10 9 7 5 5 6 5 5 5 3 1 2 1 3 6 8 9 11 11 13 13 9 6 4 3 8 11 6 4 9 9 8 8 11 16 20 21 22 25 30 33 35 38 38 38 38 38 38 38 38 38 38 38 38 38 39 38 37 36 36 35 35 33 32 31 29 26 25 24 24 24 24 24 25 25 25
9 10 10 10 11 11 11 11 11 10 9 8 6 4 2 3 3 3 2 5 6 6 7 9 11 14 18 20 21 21 18 14 12 11 7 3 1 5 9 11 11 9 7 7 7 5 4 7 12 17 22 29 36 37 37 40 42 41 40 39 39 39 40 40 41 41 40 38 35 35 36 34 33 33 29 27 27 27 27 26 25 25 25 24 24
12 12 12 11 11 11 11 11 11 10 9 9 8 6 3 0 1 2 3 4 6 8 10 12 13 13 17 19 17 14 13 11 11 10 8 7 5 5 9 12 11 10 8 6 6 7 5 5 5 3 1 6 17 24 27 33 40 42 41 38 36 36 37 40 41 43 44 40 37 36 36 36 34 33 31 29 29 29 29 28 27 27 26 25 25
12 13 13 13 14 14 14 13 13 12 11 11 10 8 6 3 1 1 2 4 4 6 8 9 9 6 5 8 8 10 12 11 10 9 9 8 7 7 9 12 14 13 12 11 9 9 9 8 9 11 11 10 4 3 7 13 17 22 30 36 37 34 34 39 43 45 46 41 38 38 37 37 36 34 33 32 32 32 31 31 31 30 29 27 26
15 16 16 16 16 16 16 15 14 14 13 12 11 9 7 5 3 2 2 3 4 4 3 3 3 3 3 5 6 7 8 9 10 11 11 12 12 13 13 13 16 16 15 15 12 11 12 12 11 12 14 15 15 11 6 2 2 3 3 10 16 19 23 32 39 41 44 43 39 39 39 38 38 37 37 36 35 35 34 33 33 32 31 30 29
18 18 18 17 17 17 16 15 15 14 14 13 11 10 8 7 5 3 3 3 2 2 1 3 4 5 6 6 5 4 4 7 9 11 12 13 14 15 15 15 17 18 17 17 15 13 12 13 13 13 14 15 17 17 15 10 7 8 9 10 9 8 11 12 23 29 33 38 40 40 40 41 41 41 41 40 39 39 37 36 35 34 34 33 31
19 19 18 17 17 17 16 15 15 15 15 15 13 12 11 10 10 9 9 9 8 8 7 8 8 8 8 7 5 3 4 6 8 10 10 11 13 14 16 17 17 18 18 17 17 15 14 14 14 14 15 15 15 17 19 17 12 10 11 12 12 13 16 14 7 16 22 28 34 37 39 41 43 45 45 43 43 43 41 39 38 37 37 36 34
19 18 17 18 18 17 17 17 16 16 16 16 15 14 14 14 13 13 12 12 12 11 10 9 8 8 7 7 6 5 3 5 7 9 9 9 10 12 14 16 18 18 19 19 18 17 16 15 14 13 14 15 15 15 18 20 18 16 16 15 14 14 13 17 17 7 8 13 19 26 32 37 39 42 45 45 45 45 45 43 42 40 39 38 37
18 19 19 19 19 19 18 17 17 17 16 16 16 16 15 15 14 14 14 14 13 12 11 10 9 7 7 6 6 5 4 3 3 5 6 8 9 10 11 14 16 18 18 18 18 19 19 18 17 16 15 15 15 15 15 18 20 21 20 18 17 16 14 15 18 17 13 11 11 12 17 27 34 36 39 43 44 44 43 43 43 42 42 40 37
19 19 19 19 18 19 18 17 18 18 18 17 16 16 15 15 15 15 15 14 13 12 11 10 9 8 7 7 6 5 5 4 3 1 2 4 6 8 9 11 12 14 16 16 17 18 18 18 17 17 18 18 18 18 18 19 19 20 21 20 19 18 17 16 17 18 18 17 17 18 18 15 25 33 36 39 42 42 41 43 43 43 42 41 39
19 18 18 19 19 19 19 19 19 19 19 18 17 17 16 16 16 16 15 15 14 12 11 11 11 10 9 9 9 8 7 6 5 4 3 3 3 5 5 7 8 10 13 15 16 17 17 17 17 17 18 19 19 19 20 20 19 20 20 20 20 19 17 16 15 14 15 17 19 20 20 17 14 23 33 38 40 42 42 42 43 43 42 41 40
Wind_Direction
180 185 202 209 201 193 186 181 176 172 169 166 163 159 155 153 153 153 153 155 154 157 168 181 182 177 181 187 194 190 186 186 177 166 160 156 155 161 166 167 166 167 170 171 168 168 169 165 162 159 157 155 150 153 153 147 149 151 147 145 145 144 145 145 142 135 129 121 113 109 107 107 107 107 105 102 100 98 96 94 92 90 88 86 84
180 218 220 219 209 199 192 185 181 177 174 171 168 165 160 157 156 157 156 155 156 160 168 191 190 182 182 184 192 189 184 182 172 165 165 162 161 167 167 167 169 169 171 171 172 172 171 167 164 163 163 160 156 160 156 149 150 150 148 149 151 150 150 148 144 136 131 122 116 112 109 109 109 110 108 107 104 101 97 94 91 90 88 87 84
190 232 237 221 213 204 197 189 185 181 178 176 173 169 165 164 162 163 160 161 162 170 185 205 195 189 187 186 189 186 183 176 167 168 170 165 164 170 169 169 171 169 171 171 173 175 173 169 168 168 168 166 164 168 168 158 152 151 151 153 153 152 153 151 145 138 133 125 119 116 113 111 111 113 113 111 108 104 100 98 96 92 90 88 84
226 230 232 221 211 206 200 194 190 185 183 181 180 176 170 171 170 168 167 170 175 187 202 216 205 194 191 191 187 183 180 171 165 172 174 170 167 170 169 171 172 172 173 171 174 176 176 173 172 172 170 168 169 174 175 164 154 154 154 154 154 154 155 151 145 139 133 126 122 120 116 113 113 115 115 112 110 108 105 103 99 94 92 89 85
252 223 226 225 208 207 201 197 195 189 188 186 186 182 175 177 176 175 178 182 188 206 221 225 217 198 192 197 189 181 175 170 168 174 179 176 171 170 171 174 175 175 175 172 173 176 177 178 177 174 168 166 170 172 169 162 155 154 156 155 153 153 151 146 142 136 129 125 125 125 120 117 117 117 117 116 116 114 110 104 98 94 92 88 85
235 211 230 233 212 208 201 199 198 192 191 192 191 188 182 182 183 185 189 194 203 220 232 228 221 198 190 196 191 180 172 173 172 174 182 181 175 175 175 178 180 176 175 173 170 176 177 179 183 172 165 164 165 162 159 157 156 156 156 153 150 149 145 142 138 133 130 127 127 126 122 120 118 119 120 121 122 119 112 103 96 91 87 86 85
212 210 235 231 217 210 204 201 198 195 197 198 197 192 188 187 189 195 197 202 214 232 239 231 219 195 188 197 193 180 174 176 174 174 185 186 180 179 178 181 183 178 176 175 169 175 178 179 184 171 165 163 162 158 152 151 154 156 155 153 151 149 146 143 140 137 135 130 128 125 122 122 121 121 123 124 122 116 109 101 94 86 82 83 83
218 226 233 225 226 217 210 207 204 203 204 202 199 196 193 191 193 198 204 211 221 240 242 232 214 193 187 197 192 180 177 178 178 177 184 192 190 183 181 183 186 180 176 177 171 173 180 179 175 168 166 164 161 157 151 149 153 155 155 155 154 153 149 144 143 143 140 134 130 127 124 124 124 124 126 126 120 114 109 100 94 84 82 84 81
232 235 227 219 223 229 226 219 215 212 207 202 199 199 197 195 197 199 208 217 229 245 240 230 208 191 188 197 192 182 182 182 182 180 182 193 198 192 186 185 187 183 175 177 177 174 181 181 174 169 168 167 161 156 156 154 154 156 158 158 158 157 153 147 146 149 144 138 134 131 130 129 130 131 130 125 121 121 121 112 98 86 84 87 87
229 234 223 216 219 251 260 235 222 216 209 203 200 201 200 199 199 198 207 218 235 244 234 226 201 187 187 195 192 185 187 188 184 183 184 191 200 200 195 189 188 188 179 178 183 179 183 183 177 172 170 169 163 160 160 158 157 159 161 161 161 161 160 156 149 146 143 140 138 136 138 138 139 138 132 130 130 129 127 117 100 89 87 93 96
223 230 227 222 231 259 272 250 227 218 214 207 202 202 202 201 200 198 204 216 234 238 223 214 193 184 188 195 193 189 191 191 188 187 188 190 199 202 201 200 192 192 185 181 186 182 184 186 179 173 171 171 168 164 163 162 162 161 161 163 164 166 170 173 157 144 141 141 141 144 148 151 155 148 138 138 136 128 124 115 106 102 101 99 96
229 231 232 230 233 243 258 254 232 222 218 211 204 204 204 201 200 198 203 213 227 228 205 196 189 185 188 196 193 192 194 195 193 191 192 192 199 203 202 207 198 198 193 184 187 183 183 188 182 178 176 174 172 166 166 167 165 163 163 165 168 171 175 177 160 146 145 146 148 152 157 164 169 160 149 148 140 129 124 116 115 113 106 103 99
237 238 240 240 231 230 238 246 236 226 220 214 208 205 204 203 201 197 202 211 219 217 192 188 191 189 189 195 192 193 197 198 197 196 196 196 201 203 200 206 204 205 202 188 189 183 181 189 185 183 181 178 176 170 168 169 167 166 166 168 171 174 176 173 164 155 151 151 155 162 168 176 177 170 163 160 152 140 129 122 120 117 109 106 107
236 237 241 248 238 230 232 240 235 227 222 215 210 206 205 204 201 198 200 209 216 209 187 186 193 193 191 193 193 195 199 201 202 201 200 199 202 205 201 204 204 209 210 196 196 189 184 191 189 188 187 182 179 174 172 170 169 169 169 171 174 176 180 178 172 165 157 155 162 178 188 188 182 176 174 171 167 159 147 141 127 117 118 114 113
231 231 228 236 237 229 230 238 232 227 225 217 211 207 206 205 203 200 199 207 215 207 190 185 193 198 195 193 195 198 203 205 206 206 206 203 204 209 207 206 204 206 212 206 203 195 188 191 191 193 193 188 182 178 176 173 171 172 172 173 176 181 186 186 179 170 162 160 169 192 200 192 185 181 182 183 178 174 171 162 153 140 139 132 121
231 228 219 222 229 226 228 232 230 230 229 223 217 209 207 208 206 203 201 205 215 211 197 190 192 201 201 198 198 200 205 210 211 211 211 210 208 211 212 212 207 203 209 212 209 200 191 189 192 197 198 194 186 183 181 176 175 175 174 176 179 184 190 191 187 178 170 169 178 196 199 190 188 186 187 194 186 182 188 182 182 191 189 180 156
238 235 225 221 225 229 233 228 228 233 229 228 223 212 210 212 211 208 204 206 213 216 204 197 195 198 205 205 204 204 207 212 216 216 216 216 214 213 213 216 212 206 207 212 214 208 198 192 195 198 202 201 190 188 187 180 179 178 178 180 182 186 191 195 194 189 180 175 182 195 195 191 192 191 195 200 194 190 196 203 208 215 218 209 190
239 240 233 228 226 231 235 226 225 230 226 228 226 214 212 215 215 214 211 211 213 219 213 205 202 200 204 207 209 210 211 215 218 218 218 219 219 219 218 219 218 213 209 210 213 213 206 199 198 199 202 204 194 192 192 185 183 182 183 185 185 187 191 196 197 195 188 178 182 192 195 198 199 199 205 205 208 207 198 206 221 229 235 226 219
234 241 236 233 230 232 235 225 220 223 221 224 225 214 213 217 218 220 219 219 218 221 221 212 209 206 207 209 212 215 216 218 220 222 220 221 222 222 223 221 223 220 213 211 213 215 211 202 198 199 200 202 198 195 195 193 188 186 189 191 189 189 192 196 197 198 195 184 183 191 200 209 209 208 213 212 219 219 205 211 224 231 240 235 232
219 235 235 231 230 233 233 224 217 221 222 220 222 213 212 218 219 225 226 226 226 225 226 220 214 210 211 212 214 218 222 223 223 224 223 223 223 223 223 222 224 224 218 213 211 214 214 208 202 201 201 200 198 196 197 199 195 192 194 195 194 194 196 196 198 201 199 193 188 193 207 215 217 216 219 217 220 224 216 220 225 229 243 240 239
195 216 231 228 228 228 223 220 216 221 223 218 221 212 210 217 219 225 228 228 229 229 230 226 221 216 215 214 214 218 224 228 229 228 227 227 226 223 220 220 223 225 222 215 211 213 213 210 207 203 203 200 198 196 197 200 199 198 198 198 199 201 201 199 201 204 204 204 197 199 210 218 220 217 220 222 219 225 224 225 231 233 239 240 244
171 189 211 220 226 225 218 216 214 218 215 201 210 210 210 218 221 226 229 229 228 229 232 229 225 221 219 219 217 219 223 229 232 232 231 231 230 225 218 216 219 224 224 218 213 213 211 210 208 207 207 203 199 197 197 200 202 204 203 201 202 204 205 204 206 208 212 218 215 210 216 225 230 224 223 228 224 224 226 230 238 242 241 237 245
148 167 179 195 216 220 220 219 215 218 215 195 195 203 210 218 224 228 231 232 230 230 232 232 230 225 223 224 225 225 226 229 233 234 233 232 231 228 220 214 214 219 223 221 216 214 212 211 212 211 211 207 202 200 200 202 206 208 207 205 204 206 208 211 213 215 219 223 227 223 222 230 242 239 230 231 231 227 225 232 242 250 250 242 244
121 111 149 192 204 215 234 241 229 222 219 203 193 197 207 217 224 230 232 232 232 233 233 234 233 230 227 227 229 230 230 231 233 236 233 231 230 229 223 216 213 214 218 220 218 216 214 213 215 216 215 213 208 205 204 205 210 211 211 209 208 208 212 216 218 221 225 227 230 230 229 231 240 247 240 234 237 237 231 236 245 250 252 249 248
90 53 337 277 284 262 280 281 259 249 229 216 206 201 206 214 220 226 234 234 232 233 234 236 236 233 230 230 231 231 232 231 232 234 232 230 229 228 224 219 215 213 214 217 218 218 216 214 216 216 215 216 214 212 210 209 212 213 212 212 212 212 215 219 220 223 229 229 230 234 237 236 239 249 249 240 241 245 244 244 249 252 253 255 254
101 124 306 303 323 320 308 310 297 304 301 255 237 211 208 213 216 218 227 234 235 235 234 236 237 235 232 231 231 230 231 230 229 231 230 230 229 227 224 220 217 214 214 215 216 218 217 215 216 216 216 217 217 216 216 214 215 215 214 213 214 216 218 220 223 225 230 230 230 237 242 241 242 247 251 249 245 246 249 247 249 253 256 258 258
77 49 360 318 330 338 328 331 324 326 347 341 318 259 218 216 218 217 219 227 233 238 240 239 237 237 235 233 231 230 231 229 227 227 227 227 229 230 225 221 218 214 214 215 216 218 219 217 218 219 219 220 221 219 218 219 220 219 219 217 217 219 221 223 225 227 231 232 234 239 245 246 247 250 253 252 246 246 250 251 254 256 257 260 261
12 357 345 335 327 327 329 334 330 334 354 353 333 326 298 238 231 227 221 222 226 231 239 242 241 238 236 235 233 231 230 230 227 225 226 226 227 231 228 223 218 214 213 215 216 219 221 220 220 222 223 224 224 222 220 223 224 222 220 219 219 220 223 225 227 230 235 239 241 244 249 251 251 253 255 255 251 249 250 251 256 258 258 260 262
335 341 337 335 333 327 327 327 329 339 351 352 341 331 330 328 299 268 249 235 230 229 231 235 240 240 237 236 236 233 229 229 229 227 226 226 225 227 228 223 219 215 214 215 216 219 222 222 221 223 226 228 228 226 224 227 227 226 223 218 218 219 222 226 229 234 240 244 244 245 248 252 253 253 254 256 255 253 250 249 253 257 258 257 258
328 337 334 330 332 338 332 321 326 339 345 348 347 329 320 326 329 313 305 305 280 263 248 229 230 237 238 237 236 235 232 229 229 229 226 225 224 223 224 222 219 216 216 215 216 220 224 224 224 225 227 230 232 228 225 228 229 229 230 224 220 221 223 228 232 236 241 244 244 243 246 250 252 253 252 253 255 256 254 252 252 255 257 255 253
330 325 325 329 332 335 331 324 324 331 335 326 323 316 311 317 323 313 303 309 311 309 311 259 231 232 237 239 237 235 233 231 229 229 228 225 224 224 221 220 217 216 217 216 217 221 225 226 228 229 230 233 234 230 226 229 228 227 229 229 225 225 227 230 234 237 240 243 245 246 248 250 253 254 255 256 257 257 256 255 254 254 256 255 252
329 323 324 327 330 330 327 326 324 328 333 320 310 306 305 309 311 308 307 311 310 309 320 323 267 237 232 237 237 234 232 230 229 229 229 227 224 225 223 220 217 215 216 217 219 222 224 227 231 233 233 233 234 231 227 228 229 226 227 230 229 229 231 234 236 239 242 246 249 250 252 254 256 258 258 260 260 258 257 256 257 259 258 256 251
332 330 327 323 323 323 323 324 323 328 331 325 320 316 315 312 309 308 310 312 314 315 314 325 319 254 233 231 229 230 232 230 229 229 229 229 226 225 224 222 221 219 218 219 220 223 224 226 229 232 232 230 230 231 229 229 229 228 230 233 233 234 237 239 241 243 244 246 247 249 252 254 257 258 259 259 258 257 256 258 260 263 262 257 252
336 331 327 324 324 322 323 324 321 324 326 327 326 327 333 325 315 309 308 308 307 314 316 316 323 279 242 235 223 219 224 227 228 229 230 230 228 227 226 225 224 224 223 222 222 223 225 228 229 233 233 231 230 231 232 232 231 230 231 234 236 238 240 242 242 240 240 239 239 242 246 250 253 255 256 255 255 254 254 256 258 260 260 258 254
343 339 337 336 333 329 327 328 326 323 320 322 323 327 339 336 321 302 293 297 299 306 313 317 314 275 246 241 232 222 218 219 222 225 228 231 231 228 229 228 227 227 227 227 227 225 226 229 231 233 234 234 233 233 234 234 235 235 235 237 238 239 239 238 237 236 236 236 236 239 243 247 251 253 255 254 253 252 251 253 255 257 257 257 256
353 352 349 344 340 336 334 332 326 318 314 317 325 330 339 340 332 309 283 278 287 300 300 309 310 268 242 233 238 233 217 212 218 222 226 229 231 231 231 232 231 229 230 231 232 231 230 231 233 234 236 236 236 235 236 238 240 241 241 241 239 237 236 235 235 237 237 236 237 240 243 246 250 253 254 254 254 253 253 253 255 256 256 256 257
357 355 351 346 342 340 339 336 327 312 301 300 311 321 327 335 337 342 340 293 275 287 293 293 297 272 254 233 228 233 222 213 218 222 223 226 230 233 233 232 231 229 229 232 235 236 237 238 239 239 240 240 241 240 239 241 242 243 243 240 237 235 235 237 240 241 240 240 241 242 245 247 251 253 254 255 255 255 254 254 255 256 257 257 257
354 353 352 349 346 343 341 339 335 320 299 278 273 293 302 302 308 325 338 351 357 341 313 296 286 271 257 244 233 233 232 228 224 222 221 221 224 229 232 232 232 230 228 229 233 237 239 241 243 244 244 244 243 242 242 243 244 245 243 239 237 237 239 242 244 244 242 241 243 244 247 250 251 252 254 254 253 254 255 254 255 256 256 257 255
356 352 351 351 348 345 343 341 337 328 311 290 271 260 271 280 285 307 306 320 352 349 304 286 273 258 247 237 231 233 235 236 237 236 232 220 210 214 223 228 231 231 229 229 230 233 238 240 241 242 245 246 246 246 246 247 247 247 245 242 241 241 242 244 244 244 242 241 243 245 247 248 248 248 250 251 251 252 253 253 253 254 255 256 254
3 354 349 348 346 346 344 340 338 336 329 306 281 256 249 259 260 257 288 309 324 321 83 113 177 200 209 210 204 211 226 232 238 248 255 256 226 173 187 205 214 214 214 219 222 225 230 234 237 239 241 243 246 248 248 248 248 248 248 247 246 245 244 243 243 242 240 241 242 243 244 243 242 243 245 248 251 251 250 251 251 252 253 254 254
12 5 358 357 358 358 352 348 348 346 343 331 310 274 249 249 262 268 275 56 69 62 76 82 93 114 132 143 137 134 147 158 151 219 262 268 268 99 107 114 120 148 171 189 202 210 217 223 228 232 236 239 242 245 246 246 245 245 245 246 246 246 247 246 245 244 241 240 242 245 245 242 240 242 244 246 250 252 252 252 251 251 252 252 254
26 25 24 23 18 12 5 2 0 356 358 360 357 341 270 241 260 263 178 115 106 104 94 79 71 82 97 103 103 101 103 109 110 107 99 109 137 64 58 67 78 81 84 107 131 148 189 213 215 217 227 234 237 240 243 243 242 242 242 244 245 245 246 247 247 248 246 243 244 248 249 247 246 246 245 246 247 250 252 252 252 252 252 253 254
33 35 35 35 32 28 25 22 17 14 18 18 13 10 14 81 172 166 153 134 119 109 102 99 93 85 82 78 74 64 56 60 73 78 76 77 77 42 20 20 34 47 47 45 55 54 33 10 5 360 331 235 227 228 234 237 237 239 239 237 239 241 242 241 241 245 247 245 245 247 249 251 252 251 248 248 248 248 250 251 252 252 252 252 253
34 35 35 34 34 34 33 33 33 32 33 30 23 17 10 3 9 160 176 169 148 116 106 116 122 116 74 51 30 10 2 356 4 9 8 13 10 2 356 353 358 10 18 15 19 27 17 5 356 351 356 3 354 217 220 225 227 235 234 231 233 233 233 234 235 239 243 243 243 242 244 248 249 250 249 251 251 250 250 250 251 252 252 253 254
36 35 34 34 35 35 34 34 36 38 41 41 36 31 20 358 339 304 259 231 216 190 158 162 181 233 296 337 348 355 353 339 338 342 345 346 343 343 342 340 340 344 351 357 1 5 360 356 356 350 345 347 351 352 351 2 51 15 254 236 238 237 241 239 232 234 239 240 240 238 239 242 244 246 248 251 253 252 251 249 249 250 252 254 255
42 40 39 39 39 38 36 35 36 38 41 42 41 39 35 23 10 360 358 349 311 270 299 330 328 320 325 336 345 345 322 312 315 318 324 329 329 331 332 331 331 333 336 341 349 352 346 346 350 346 339 339 340 335 332 344 360 11 25 31 21 1 335 277 232 225 231 234 235 236 238 239 241 244 245 247 250 251 250 247 247 249 251 254 255
48 47 45 44 43 41 39 37 37 37 39 41 40 39 40 39 36 38 38 36 37 40 27 10 360 354 353 349 346 332 285 282 289 293 299 307 311 314 318 322 324 326 326 328 338 348 346 341 341 339 333 329 331 328 326 333 338 341 352 1 8 12 16 8 297 237 229 232 235 237 240 242 242 243 243 244 246 247 247 246 246 248 251 255 256
53 51 49 48 46 45 44 43 42 42 42 41 39 39 42 46 46 46 46 45 45 43 37 28 18 8 358 348 343 336 299 271 267 269 273 279 284 290 298 306 312 315 317 320 326 336 340 337 332 331 327 321 321 323 323 329 334 336 338 339 346 351 359 14 11 339 250 254 254 247 245 244 243 242 241 242 244 245 244 244 246 249 252 255 257
58 55 54 54 52 52 50 48 48 48 47 45 43 43 45 48 51 52 51 50 50 47 42 36 28 21 9 356 348 343 340 315 266 252 255 258 260 264 273 284 295 301 305 308 310 315 322 325 324 321 320 319 318 318 320 328 333 334 335 333 334 338 335 344 5 15 14 360 339 309 277 253 245 243 241 240 240 242 242 242 246 250 251 253 256
62 61 60 59 57 56 54 51 52 52 51 49 48 48 48 49 50 53 54 55 54 52 48 43 35 30 21 13 6 356 352 346 342 323 265 260 255 252 255 259 269 279 286 290 292 296 301 306 309 310 310 311 312 316 320 324 326 325 328 332 334 337 337 337 350 4 8 4 355 348 343 301 257 246 241 239 238 239 240 242 246 248 250 252 253
65 64 63 61 59 58 56 55 55 55 54 52 51 51 49 49 48 48 49 49 48 48 45 43 39 36 33 28 25 18 13 4 359 355 332 308 285 270 263 252 246 251 260 268 274 277 282 287 292 295 298 299 301 306 313 315 316 316 318 323 330 335 338 343 350 354 353 351 345 343 351 348 301 259 244 239 238 238 238 238 240 242 245 247 246